Regional Weather Roundup
Issued by NWS Sioux Falls, SD

Home | Current Version | Previous Version | Graphics & Text | Print | Product List | Glossary Off
Versions: 1 2 3 4 5 6 7 8 9 10 11 12 13 14 15 16 17 18 19 20 21 22 23 24 25 26 27 28 29 30 31 32 33 34 35 36 37 38 39 40 41 42 43 44 45 46 47 48 49 50

764
ASUS43 KFSD 121610
RWRFSD

WEATHER ROUNDUP FOR SE SOUTH DAKOTA/SW MINNESOTA/NW IOWA
NATIONAL WEATHER SERVICE SIOUX FALLS SD
1000 AM CST FRI FEB 12 2016

NOTE: "FAIR" INDICATES FEW OR NO CLOUDS BELOW 12,000 FEET WITH NO
SIGNIFICANT WEATHER AND OR OBSTRUCTIONS TO VISIBILITY.


SDZ038>040-050-052>070-121700-
SOUTHEAST SOUTH DAKOTA

CITY           SKY/WX    TMP DP  RH WIND       PRES   REMARKS
BROOKINGS      SUNNY      8  -1  66 N17       30.48R WCI -10
CHAMBERLAIN    CLOUDY    19  14  81 NE6       30.51R WCI  10
HURON          CLOUDY    13   4  67 N15       30.56R WCI  -3
MADISON        FAIR       9   5  85 N17       30.47R WCI -10
MITCHELL       CLOUDY    15   8  73 N16       30.54R WCI  -1
SIOUX FALLS    PTSUNNY   12   4  70 N15       30.49R WCI  -4
WINNER         CLOUDY    23  13  65 N14       30.48R WCI  11
YANKTON        CLOUDY    18  10  73 N20       30.51R WCI   1
$$

MNZ071-072-080-081-089-090-097-098-121700-
SOUTHWEST MINNESOTA

CITY           SKY/WX    TMP DP  RH WIND       PRES   REMARKS
FAIRMONT       SUNNY      9   0  66 NW22G28   30.40R WCI -11
JACKSON        SUNNY     10  -2  56 NW22G33   30.42R WCI  -9
LUVERNE        LGT SNOW  14   5  67 N15       30.47R WCI  -1
MARSHALL       SUNNY      6  -3  66 N22G31    30.49R WCI -15
MONTEVIDEO     LGT SNOW   7  -2  66 N20G25    30.52R WCI -13
PIPESTONE      SUNNY     10  -6  48 N14G20    30.46R WCI  -5
REDWOOD FALLS  SUNNY      8  -3  61 N17G25    30.48R WCI -10
TRACY          SUNNY      8   0  69 N22G28    30.47R WCI -13
WINDOM         SUNNY      7   0  72 NW22      30.43R HAZE    WCI -14
WORTHINGTON    SUNNY      9   0  66 N24       30.44R WCI -12
$$

IAZ001>003-012>014-020>022-031-032-NEZ013-014-SDZ071-121700-
NORTHWEST IOWA

CITY           SKY/WX    TMP DP  RH WIND       PRES   REMARKS
CHEROKEE       SUNNY     14   7  75 N17G26    30.46R HAZE    WCI  -3
DENISON        SUNNY     18  10  73 N14       30.42R WCI   4
ESTHERVILLE    SUNNY      9   0  67 N25       30.42R WCI -12
LE MARS        CLOUDY    16  10  79 N14       30.49R WCI   1
ORANGE CITY    SUNNY     12   9  85 N10       30.46R WCI  -1
SHELDON        SUNNY     10   7  85 N15       30.44R WCI  -6
SIOUX CITY     PTSUNNY   21   9  59 N18G26    30.48R WCI   6
SPENCER        MOSUNNY   11   3  70 N18       30.44R BLWGSNOWWCI  -7
STORM LAKE     CLOUDY    12   9  85 N18       30.43R WCI  -5
$$

ABBREVIATIONS USED IN REMARKS
   TC - TEMPERATURE IN CELSIUS
  WCI - WIND CHILL INDEX
   HX - HEAT INDEX
  VSB - VISIBILITY





USA.gov is the U.S. government's official web portal to all federal, state and local government web resources and services.